Terug naar catalogus

ICEYE-X65

ActiefWetenschapVLEO
NORAD 66300·PAYLOAD·🇦🇪 UAE

Gelanceerd Nov 2, 2025 vanaf Cape Canaveral Space Force Station

Loading…

Volgende Passages (komende 24 uur)

TLE

VersSource: Space-Track

Epoch: Sep 14, 2026, 17:07 UTC

1 66300U 25248H   26257.71356711  .00002462  00000-0  17262-3 0  9994
2 66300  45.4068  23.3168 0005014 181.1156 178.9716 15.08182839 49030

Volg ICEYE-X65 in realtime met AllMySat

Download on the App Store